User: anonymous
Location: Pine Mountain Observatory
(43.7910°N, 120.9377°W)
Time: 21:24:12
(UTC-07:00)
Language:

IDEFIX/ARIANE 42P - Orbit

View from above orbital plane
View from above orbital plane
View from above satellite
View from above satellite

Ground track
Ground track

The orbit data is extracted from the following two-line orbital elements,

1 27422U 02021B   14244.13548631  .00000084  00000-0  49336-4 0  5726
2 27422 098.2940 282.9882 0012491 025.3681 037.9696 14.29043763640988
Epoch (UTC): 01 September 2014 03:15:06
Eccentricity: 0.0012491
inclination: 98.2940°
perigee height: 786 km
apogee height: 804 km
right ascension of ascending node: 282.9882°
argument of perigee: 25.3681°
revolutions per day: 14.29043763
mean anomaly at epoch: 37.9696°
orbit number at epoch: 64098

The dashed part of the orbit path shows where the satellite is in the earth's shadow,  

DLR